User: anonymous   Login
Location: Unspecified
(0.0000°N, 0.0000°E)
Time: 05:29:51
(UTC+01:00)
Language:

Ariane H10 - Orbit

View from above orbital plane
View from above orbital plane
View from above satellite
View from above satellite

Ground track
Ground track

The orbit data is extracted from the following two-line orbital elements,

1 21815U 91084C   17055.37241247  .00000087  00000-0  27598-3 0  9996
2 21815   3.8387 125.1974 7192478 345.9026   1.7583  2.31726387209716
Epoch (UTC): 24 February 2017 08:56:16
Eccentricity: 0.7192478
inclination: 3.8387°
perigee height: 394 km
apogee height: 35093 km
right ascension of ascending node: 125.1974°
argument of perigee: 345.9026°
revolutions per day: 2.31726387
mean anomaly at epoch: 1.7583°
orbit number at epoch: 20971

The dashed part of the orbit path shows where the satellite is in the earth's shadow,  

DLR